SL-8 R/B

Satellite information

Favourite Embed

Satellite Type and Status

ROCKET BODYIN ORBIT

Key statistics

Satellite SL-8 R/B at a glance.

Uptime

14107

Days in orbit

Revolutions

≈ 14.4

Per day

Orbit

LEO

Low Earth Orbit

Inclination

74.1

Latest

Satellite identification and parameters

Extended collection of information and parameters for SL-8 R/B.

Object identification

Identified? True

Debris? False

Object name: SL-8 R/B

International designator: 1987-006B

Object number (NORAD): 17304

Object ID (CCSDS): 17304

Country: COMMONWEALTH OF INDEPENDENT STATES (CIS)

Current information (Y/N): Y

RCS size: LARGE

Orbital parameters

Period: 100.07 minutes

Inclination: 74.0602 deg

SMA: 7139.974 km

Apoapsis: 782.049 km

Periapsis: 741.63 km

RAAN: 333.3991 deg

Eccentricy: 0.00283052

Argument of periapsis: 142.4481 deg

Mean anomaly: 217.8658 deg

Mean motion: 14.38990025 rev/day

Mean motion (dot): 0.00000543 rev/day2

B* drag term: 0.00018371306 1/REarth

Two-line elements (TLE)

Creation date: Sept. 3, 2025, 10:15 a.m.

Reference frame: TEME

Reference center: EARTH

Epoch: Sept. 3, 2025, 6:11 a.m. UTC

TLE line 0: 0 SL-8 R/B

TLE line 1: 1 17304U 87006B 25246.25772072 .00000543 00000-0 18371-3 0 9992

TLE line 2: 2 17304 74.0602 333.3991 0028305 142.4481 217.8658 14.38990025 24283

Live tracking on map

Real-time ground track for satellite SL-8 R/B.

In-orbit conjunctions

A list of the most updated potential collisions computed for object SL-8 R/B.

Target Orbit TCA Probability of collision Miss distance Type
CZ-6A DEB LEO 2025-05-06 01:43:57 0.0003605683 165.0 (m) DEBRIS
CZ-6A DEB SSO 2024-11-13 05:42:03 0.0001239467 516.0 (m) DEBRIS

Associated space launch

Military communications satellite

SL-8 R/B was lifted into orbit during the mission ‘Kosmos-3M | Strela-2M 41’, on board a Kosmos-3M space rocket.

The launch took place on Jan. 21, 1987, 9:10 a.m. from 132/2.

For more information about the launch, click the button.

Launch to space Kosmos-3M | Strela-2M 41
Kosmos-3M | Strela-2M 41

Agency: N/A

Status: Launch Successful

Launch date: Jan. 21, 1987, 9:10 a.m. UTC

Rocket: Kosmos-3M

Launch pad: 132/2

Location: Plesetsk Cosmodrome, Russian Federation

...

Latest news about this satellite

There are no fresh news available about this satellite. Check back as we update our databases every day.


Newsletter sign-up

Weekly statistics, charts and insights to help you stay on top of the space industry.